This is the latest recevied weather packets stored in our database for station/object YB1DDK-2. If no packets are shown the sender has not sent any weather packets the latest 10 day(s).
| Time | Temp. | Humidity | Pressure | Rain* | Wind** | Luminosity | Snow |
|---|---|---|---|---|---|---|---|
| 1778038695 | 34.44° C | 59% | 1001 hPa | - | - | 0 W/m² | - |
| 1778037773 | 34.44° C | 58% | 1001 hPa | - | - | 0 W/m² | - |
| 1778036851 | 35° C | 58% | 1001 hPa | - | - | 0 W/m² | - |
| 1778035930 | 34.44° C | 58% | 1001 hPa | - | - | 0 W/m² | - |
| 1778035007 | 33.89° C | 59% | 1001 hPa | - | - | 0 W/m² | - |
| 1778034086 | 33.89° C | 61% | 1001 hPa | - | - | 0 W/m² | - |
| 1778033163 | 33.33° C | 65% | 1001 hPa | - | - | 0 W/m² | - |
| 1778032240 | 32.78° C | 68% | 1001 hPa | - | - | 0 W/m² | - |
| 1778031318 | 32.22° C | 71% | 1001 hPa | - | - | 0 W/m² | - |
| 1778030397 | 32.22° C | 72% | 1001 hPa | - | - | 0 W/m² | - |
| 1778029476 | 31.67° C | 73% | 1001 hPa | - | - | 0 W/m² | - |
| 1778028553 | 31.11° C | 74% | 1001 hPa | - | - | 0 W/m² | - |
| 1778027630 | 31.11° C | 75% | 1001 hPa | - | - | 0 W/m² | - |
| 1778026709 | 31.11° C | 76% | 1001 hPa | - | - | 0 W/m² | - |
| 1778025787 | 31.11° C | 76% | 1001 hPa | - | - | 0 W/m² | - |
| 1778024864 | 30.56° C | 76% | 1001 hPa | - | - | 0 W/m² | - |
| 1778023942 | 30.56° C | 76% | 1001 hPa | - | - | 0 W/m² | - |
| 1778023021 | 30.56° C | 75% | 1001 hPa | - | - | 0 W/m² | - |
| 1778022098 | 30.56° C | 77% | 1001 hPa | - | - | 0 W/m² | - |
| 1778021177 | 30.56° C | 77% | 1001 hPa | - | - | 0 W/m² | - |
| 1778020254 | 31.11° C | 78% | 1000 hPa | - | - | 0 W/m² | - |
| 1778019332 | 30.56° C | 77% | 1000 hPa | - | - | 0 W/m² | - |
| 1778018410 | 30.56° C | 77% | 1000 hPa | - | - | 0 W/m² | - |
| 1778017488 | 30.56° C | 77% | 1000 hPa | - | - | 0 W/m² | - |
| 1778016566 | 30.56° C | 76% | 1000 hPa | - | - | 0 W/m² | - |
* Rain since midnight (hover to see other rain measurements)
** Current wind speed in m/s (hover to see current wind gust speed)